Time,TemperatureF,DewpointF,PressureIn,WindDirection,WindDirectionDegrees,WindSpeedMPH,WindSpeedGustMPH,Humidity,HourlyPrecipIn,Conditions,Clouds,dailyrainin,SolarRadiationWatts/m^2,SoftwareType,DateUTC
2013-02-23 00:01:00,29.0,27.0,-100.00,West,261,9.0,19.0,91,0.00,,,0.12,0.000000,,2013-02-23 08:01:00,
2013-02-23 00:11:00,29.0,27.0,-100.00,West,261,9.0,19.0,91,0.00,,,0.12,0.000000,,2013-02-23 08:11:00,
2013-02-23 00:21:00,29.0,27.0,-100.00,West,261,9.0,19.0,91,0.00,,,0.12,0.000000,,2013-02-23 08:21:00,
2013-02-23 00:31:00,28.0,19.0,-100.00,SW,232,5.0,27.0,68,0.00,,,0.12,0.000000,,2013-02-23 08:31:00,
2013-02-23 00:52:00,28.0,19.0,-100.00,SW,232,5.0,27.0,68,0.00,,,0.12,0.000000,,2013-02-23 08:52:00,
2013-02-23 01:01:00,28.0,19.0,-100.00,SW,232,5.0,27.0,68,0.00,,,0.12,0.000000,,2013-02-23 09:01:00,
2013-02-23 01:11:00,28.0,19.0,-100.00,SW,232,5.0,27.0,68,0.00,,,0.12,0.000000,,2013-02-23 09:11:00,
2013-02-23 01:21:00,28.0,19.0,-100.00,SW,232,5.0,27.0,68,0.00,,,0.12,0.000000,,2013-02-23 09:21:00,
2013-02-23 01:31:00,27.0,20.0,-100.00,SSW,202,7.0,14.0,75,0.00,,,0.12,0.000000,,2013-02-23 09:31:00,
2013-02-23 01:52:00,27.0,20.0,-100.00,SSW,202,7.0,14.0,75,0.00,,,0.12,0.000000,,2013-02-23 09:52:00,
2013-02-23 02:01:00,27.0,20.0,-100.00,SSW,202,7.0,14.0,75,0.00,,,0.12,0.000000,,2013-02-23 10:01:00,
2013-02-23 02:11:00,27.0,20.0,-100.00,SSW,202,7.0,14.0,75,0.00,,,0.12,0.000000,,2013-02-23 10:11:00,
2013-02-23 02:21:00,27.0,20.0,-100.00,SSW,202,7.0,14.0,75,0.00,,,0.12,0.000000,,2013-02-23 10:21:00,
2013-02-23 02:31:00,26.0,24.0,-100.00,SW,232,6.0,16.0,93,0.00,,,-99.99,0.000000,,2013-02-23 10:31:00,
2013-02-23 02:52:00,26.0,24.0,-100.00,SW,232,6.0,16.0,93,0.00,,,-99.99,0.000000,,2013-02-23 10:52:00,
2013-02-23 03:02:00,26.0,24.0,-100.00,SW,232,6.0,16.0,93,0.00,,,-99.99,0.000000,,2013-02-23 11:02:00,
2013-02-23 03:11:00,26.0,24.0,-100.00,SW,232,6.0,16.0,93,0.00,,,-99.99,0.000000,,2013-02-23 11:11:00,
2013-02-23 03:21:00,26.0,24.0,-100.00,SW,232,6.0,16.0,93,0.00,,,-99.99,0.000000,,2013-02-23 11:21:00,
2013-02-23 03:31:00,26.0,22.0,-100.00,SW,233,7.0,18.0,85,0.00,,,0.12,0.000000,,2013-02-23 11:31:00,
2013-02-23 03:52:00,26.0,22.0,-100.00,SW,233,7.0,18.0,85,0.00,,,0.12,0.000000,,2013-02-23 11:52:00,
2013-02-23 04:01:00,26.0,22.0,-100.00,SW,233,7.0,18.0,85,0.00,,,0.12,0.000000,,2013-02-23 12:01:00,
2013-02-23 04:11:00,26.0,22.0,-100.00,SW,233,7.0,18.0,85,0.00,,,0.12,0.000000,,2013-02-23 12:11:00,
2013-02-23 04:21:00,26.0,22.0,-100.00,SW,233,7.0,18.0,85,0.00,,,0.12,0.000000,,2013-02-23 12:21:00,
2013-02-23 04:31:00,26.0,23.0,-100.00,WSW,243,6.0,18.0,89,0.00,,,0.12,0.000000,,2013-02-23 12:31:00,
2013-02-23 04:52:00,26.0,23.0,-100.00,WSW,243,6.0,18.0,89,0.00,,,0.12,0.000000,,2013-02-23 12:52:00,
2013-02-23 05:01:00,26.0,23.0,-100.00,WSW,243,6.0,18.0,89,0.00,,,0.12,0.000000,,2013-02-23 13:01:00,
2013-02-23 05:11:00,26.0,23.0,-100.00,WSW,243,6.0,18.0,89,0.00,,,0.12,0.000000,,2013-02-23 13:11:00,
2013-02-23 05:22:00,26.0,23.0,-100.00,WSW,243,6.0,18.0,89,0.00,,,0.12,0.000000,,2013-02-23 13:22:00,
2013-02-23 05:31:00,26.0,21.0,-100.00,WSW,252,7.0,20.0,80,0.00,,,0.12,0.000000,,2013-02-23 13:31:00,
2013-02-23 05:52:00,26.0,21.0,-100.00,WSW,252,7.0,20.0,80,0.00,,,0.12,0.000000,,2013-02-23 13:52:00,
2013-02-23 06:02:00,26.0,21.0,-100.00,WSW,252,7.0,20.0,80,0.00,,,0.12,0.000000,,2013-02-23 14:02:00,
2013-02-23 06:11:00,26.0,21.0,-100.00,WSW,252,7.0,20.0,80,0.00,,,0.12,0.000000,,2013-02-23 14:11:00,
2013-02-23 06:21:00,26.0,21.0,-100.00,WSW,252,7.0,20.0,80,0.00,,,0.12,0.000000,,2013-02-23 14:21:00,
2013-02-23 06:31:00,26.0,23.0,-100.00,SW,217,5.0,15.0,89,0.00,,,0.12,0.000000,,2013-02-23 14:31:00,
2013-02-23 06:52:00,26.0,23.0,-100.00,SW,217,5.0,15.0,89,0.00,,,0.12,0.000000,,2013-02-23 14:52:00,
2013-02-23 07:01:00,26.0,23.0,-100.00,SW,217,5.0,15.0,89,0.00,,,0.12,0.000000,,2013-02-23 15:01:00,
2013-02-23 07:11:00,26.0,23.0,-100.00,SW,217,5.0,15.0,89,0.00,,,0.12,0.000000,,2013-02-23 15:11:00,
2013-02-23 07:21:00,26.0,23.0,-100.00,SW,217,5.0,15.0,89,0.00,,,0.12,0.000000,,2013-02-23 15:21:00,
2013-02-23 07:31:00,27.0,25.0,-100.00,SSW,212,5.0,11.0,91,0.00,,,0.12,8.000000,,2013-02-23 15:31:00,
2013-02-23 07:52:00,27.0,25.0,-100.00,SSW,212,5.0,11.0,91,0.00,,,0.12,8.000000,,2013-02-23 15:52:00,
2013-02-23 08:01:00,27.0,25.0,-100.00,SSW,212,5.0,11.0,91,0.00,,,0.12,8.000000,,2013-02-23 16:01:00,
2013-02-23 08:11:00,27.0,25.0,-100.00,SSW,212,5.0,11.0,91,0.00,,,0.12,8.000000,,2013-02-23 16:11:00,
2013-02-23 08:21:00,27.0,25.0,-100.00,SSW,212,5.0,11.0,91,0.00,,,0.12,8.000000,,2013-02-23 16:21:00,
2013-02-23 08:31:00,29.0,25.0,-100.00,South,187,10.0,14.0,86,0.00,,,-99.99,40.000000,,2013-02-23 16:31:00,
2013-02-23 08:52:00,29.0,25.0,-100.00,South,187,10.0,14.0,86,0.00,,,-99.99,40.000000,,2013-02-23 16:52:00,
2013-02-23 09:01:00,29.0,25.0,-100.00,South,187,10.0,14.0,86,0.00,,,-99.99,40.000000,,2013-02-23 17:01:00,
2013-02-23 09:11:00,29.0,25.0,-100.00,South,187,10.0,14.0,86,0.00,,,-99.99,40.000000,,2013-02-23 17:11:00,
2013-02-23 09:21:00,29.0,25.0,-100.00,South,187,10.0,14.0,86,0.00,,,-99.99,40.000000,,2013-02-23 17:21:00,
2013-02-23 09:31:00,33.0,25.0,-100.00,West,280,5.0,15.0,71,0.00,,,0.11,93.000000,,2013-02-23 17:31:00,
2013-02-23 09:52:00,33.0,25.0,-100.00,West,280,5.0,15.0,71,0.00,,,0.11,93.000000,,2013-02-23 17:52:00,
2013-02-23 10:01:00,33.0,25.0,-100.00,West,280,5.0,15.0,71,0.00,,,0.11,93.000000,,2013-02-23 18:01:00,
2013-02-23 10:12:00,33.0,25.0,-100.00,West,280,5.0,15.0,71,0.00,,,0.11,93.000000,,2013-02-23 18:12:00,
2013-02-23 10:21:00,33.0,25.0,-100.00,West,280,5.0,15.0,71,0.00,,,0.11,93.000000,,2013-02-23 18:21:00,
2013-02-23 10:31:00,33.0,24.0,-100.00,SSE,165,6.0,12.0,70,0.08,,,0.19,122.000000,,2013-02-23 18:31:00,
2013-02-23 10:52:00,33.0,24.0,-100.00,SSE,165,6.0,12.0,70,0.08,,,0.19,122.000000,,2013-02-23 18:52:00,
2013-02-23 11:01:00,33.0,24.0,-100.00,SSE,165,6.0,12.0,70,0.08,,,0.19,122.000000,,2013-02-23 19:01:00,
2013-02-23 11:11:00,33.0,24.0,-100.00,SSE,165,6.0,12.0,70,0.08,,,0.19,122.000000,,2013-02-23 19:11:00,
2013-02-23 11:21:00,33.0,24.0,-100.00,SSE,165,6.0,12.0,70,0.08,,,0.19,122.000000,,2013-02-23 19:21:00,
2013-02-23 11:31:00,41.0,27.0,-100.00,West,260,5.0,14.0,56,0.05,,,-99.99,531.000000,,2013-02-23 19:31:00,
2013-02-23 11:52:00,41.0,27.0,-100.00,West,260,5.0,14.0,56,0.05,,,-99.99,531.000000,,2013-02-23 19:52:00,
2013-02-23 12:01:00,41.0,27.0,-100.00,West,260,5.0,14.0,56,0.05,,,-99.99,531.000000,,2013-02-23 20:01:00,
2013-02-23 12:11:00,41.0,27.0,-100.00,West,260,5.0,14.0,56,0.05,,,-99.99,531.000000,,2013-02-23 20:11:00,
2013-02-23 12:21:00,41.0,27.0,-100.00,West,260,5.0,14.0,56,0.05,,,-99.99,531.000000,,2013-02-23 20:21:00,
2013-02-23 12:31:00,38.0,19.0,-100.00,SSW,202,7.0,15.0,46,0.00,,,0.23,700.000000,,2013-02-23 20:31:00,
2013-02-23 12:52:00,38.0,19.0,-100.00,SSW,202,7.0,15.0,46,0.00,,,0.23,700.000000,,2013-02-23 20:52:00,
2013-02-23 13:01:00,38.0,19.0,-100.00,SSW,202,7.0,15.0,46,0.00,,,0.23,700.000000,,2013-02-23 21:01:00,
2013-02-23 13:11:00,38.0,19.0,-100.00,SSW,202,7.0,15.0,46,0.00,,,0.23,700.000000,,2013-02-23 21:11:00,
2013-02-23 13:22:00,38.0,19.0,-100.00,SSW,202,7.0,15.0,46,0.00,,,0.23,700.000000,,2013-02-23 21:22:00,
2013-02-23 13:31:00,36.0,20.0,-100.00,SW,235,8.0,18.0,51,0.00,,,0.21,481.000000,,2013-02-23 21:31:00,
2013-02-23 13:52:00,36.0,20.0,-100.00,SW,235,8.0,18.0,51,0.00,,,0.21,481.000000,,2013-02-23 21:52:00,
2013-02-23 14:01:00,36.0,20.0,-100.00,SW,235,8.0,18.0,51,0.00,,,0.21,481.000000,,2013-02-23 22:01:00,
2013-02-23 14:11:00,36.0,20.0,-100.00,SW,235,8.0,18.0,51,0.00,,,0.21,481.000000,,2013-02-23 22:11:00,
2013-02-23 14:21:00,36.0,20.0,-100.00,SW,235,8.0,18.0,51,0.00,,,0.21,481.000000,,2013-02-23 22:21:00,
2013-02-23 14:31:00,34.0,20.0,-100.00,WSW,258,7.0,20.0,56,0.00,,,0.18,288.000000,,2013-02-23 22:31:00,
2013-02-23 14:52:00,34.0,20.0,-100.00,WSW,258,7.0,20.0,56,0.00,,,0.18,288.000000,,2013-02-23 22:52:00,
2013-02-23 15:01:00,34.0,20.0,-100.00,WSW,258,7.0,20.0,56,0.00,,,0.18,288.000000,,2013-02-23 23:01:00,
2013-02-23 15:11:00,34.0,20.0,-100.00,WSW,258,7.0,20.0,56,0.00,,,0.18,288.000000,,2013-02-23 23:11:00,
2013-02-23 15:21:00,34.0,20.0,-100.00,WSW,258,7.0,20.0,56,0.00,,,0.18,288.000000,,2013-02-23 23:21:00,
2013-02-23 15:31:00,35.0,21.0,-100.00,SSW,211,4.0,13.0,57,0.00,,,0.15,212.000000,,2013-02-23 23:31:00,
2013-02-23 15:52:00,35.0,21.0,-100.00,SSW,211,4.0,13.0,57,0.00,,,0.15,212.000000,,2013-02-23 23:52:00,
2013-02-23 16:01:00,35.0,21.0,-100.00,SSW,211,4.0,13.0,57,0.00,,,0.15,212.000000,,2013-02-24 00:01:00,
2013-02-23 16:11:00,35.0,21.0,-100.00,SSW,211,4.0,13.0,57,0.00,,,0.15,212.000000,,2013-02-24 00:11:00,
2013-02-23 16:22:00,35.0,21.0,-100.00,SSW,211,4.0,13.0,57,0.00,,,0.15,212.000000,,2013-02-24 00:22:00,
2013-02-23 16:31:00,34.0,21.0,-100.00,WSW,243,8.0,19.0,58,0.01,,,0.16,144.000000,,2013-02-24 00:31:00,
2013-02-23 16:52:00,34.0,21.0,-100.00,WSW,243,8.0,19.0,58,0.01,,,0.16,144.000000,,2013-02-24 00:52:00,
2013-02-23 17:01:00,34.0,21.0,-100.00,WSW,243,8.0,19.0,58,0.01,,,0.16,144.000000,,2013-02-24 01:01:00,
2013-02-23 17:11:00,34.0,21.0,-100.00,WSW,243,8.0,19.0,58,0.01,,,0.16,144.000000,,2013-02-24 01:11:00,
2013-02-23 17:22:00,34.0,21.0,-100.00,WSW,243,8.0,19.0,58,0.01,,,0.16,144.000000,,2013-02-24 01:22:00,
2013-02-23 17:31:00,31.0,18.0,-100.00,SSW,203,8.0,15.0,57,0.00,,,0.15,118.000000,,2013-02-24 01:31:00,
2013-02-23 17:52:00,31.0,18.0,-100.00,SSW,203,8.0,15.0,57,0.00,,,0.15,118.000000,,2013-02-24 01:52:00,
2013-02-23 18:01:00,31.0,18.0,-100.00,SSW,203,8.0,15.0,57,0.00,,,0.15,118.000000,,2013-02-24 02:01:00,
2013-02-23 18:11:00,31.0,18.0,-100.00,SSW,203,8.0,15.0,57,0.00,,,0.15,118.000000,,2013-02-24 02:11:00,
2013-02-23 18:21:00,31.0,18.0,-100.00,SSW,203,8.0,15.0,57,0.00,,,0.15,118.000000,,2013-02-24 02:21:00,
2013-02-23 18:31:00,30.0,18.0,-100.00,SW,224,3.0,11.0,60,0.00,,,0.14,4.000000,,2013-02-24 02:31:00,
2013-02-23 18:52:00,30.0,18.0,-100.00,SW,224,3.0,11.0,60,0.00,,,0.14,4.000000,,2013-02-24 02:52:00,
2013-02-23 19:01:00,30.0,18.0,-100.00,SW,224,3.0,11.0,60,0.00,,,0.14,4.000000,,2013-02-24 03:01:00,
2013-02-23 19:11:00,30.0,18.0,-100.00,SW,224,3.0,11.0,60,0.00,,,0.14,4.000000,,2013-02-24 03:11:00,
2013-02-23 19:21:00,30.0,18.0,-100.00,SW,224,3.0,11.0,60,0.00,,,0.14,4.000000,,2013-02-24 03:21:00,
2013-02-23 19:31:00,29.0,19.0,-100.00,East,89,2.0,8.0,66,0.00,,,0.14,0.000000,,2013-02-24 03:31:00,
2013-02-23 19:52:00,29.0,19.0,-100.00,East,89,2.0,8.0,66,0.00,,,0.14,0.000000,,2013-02-24 03:52:00,
2013-02-23 20:01:00,29.0,19.0,-100.00,East,89,2.0,8.0,66,0.00,,,0.14,0.000000,,2013-02-24 04:01:00,
2013-02-23 20:11:00,29.0,19.0,-100.00,East,89,2.0,8.0,66,0.00,,,0.14,0.000000,,2013-02-24 04:11:00,
2013-02-23 20:21:00,29.0,19.0,-100.00,East,89,2.0,8.0,66,0.00,,,0.14,0.000000,,2013-02-24 04:21:00,
2013-02-23 20:31:00,28.0,20.0,-100.00,East,88,2.0,4.0,70,0.00,,,0.14,0.000000,,2013-02-24 04:31:00,
2013-02-23 20:52:00,28.0,20.0,-100.00,East,88,2.0,4.0,70,0.00,,,0.14,0.000000,,2013-02-24 04:52:00,
2013-02-23 21:01:00,28.0,20.0,-100.00,East,88,2.0,4.0,70,0.00,,,0.14,0.000000,,2013-02-24 05:01:00,
2013-02-23 21:11:00,28.0,20.0,-100.00,East,88,2.0,4.0,70,0.00,,,0.14,0.000000,,2013-02-24 05:11:00,
2013-02-23 21:21:00,28.0,20.0,-100.00,East,88,2.0,4.0,70,0.00,,,0.14,0.000000,,2013-02-24 05:21:00,
2013-02-23 21:31:00,27.0,20.0,-100.00,NNE,31,2.0,4.0,73,0.00,,,0.14,0.000000,,2013-02-24 05:31:00,
2013-02-23 21:52:00,27.0,20.0,-100.00,NNE,31,2.0,4.0,73,0.00,,,0.14,0.000000,,2013-02-24 05:52:00,
2013-02-23 22:01:00,27.0,20.0,-100.00,NNE,31,2.0,4.0,73,0.00,,,0.14,0.000000,,2013-02-24 06:01:00,
2013-02-23 22:11:00,27.0,20.0,-100.00,NNE,31,2.0,4.0,73,0.00,,,0.14,0.000000,,2013-02-24 06:11:00,
2013-02-23 22:21:00,27.0,20.0,-100.00,NNE,31,2.0,4.0,73,0.00,,,0.14,0.000000,,2013-02-24 06:21:00,
2013-02-23 22:31:00,28.0,21.0,-100.00,South,174,3.0,6.0,74,0.00,,,0.14,0.000000,,2013-02-24 06:31:00,
2013-02-23 22:52:00,28.0,21.0,-100.00,South,174,3.0,6.0,74,0.00,,,0.14,0.000000,,2013-02-24 06:52:00,
2013-02-23 23:01:00,28.0,21.0,-100.00,South,174,3.0,6.0,74,0.00,,,0.14,0.000000,,2013-02-24 07:01:00,
2013-02-23 23:11:00,28.0,21.0,-100.00,South,174,3.0,6.0,74,0.00,,,0.14,0.000000,,2013-02-24 07:11:00,
2013-02-23 23:21:00,28.0,21.0,-100.00,South,174,3.0,6.0,74,0.00,,,0.14,0.000000,,2013-02-24 07:21:00,
2013-02-23 23:31:00,27.0,20.0,-100.00,SSE,154,2.0,5.0,76,0.00,,,0.14,0.000000,,2013-02-24 07:31:00,
2013-02-23 23:52:00,27.0,20.0,-100.00,SSE,154,2.0,5.0,76,0.00,,,0.14,0.000000,,2013-02-24 07:52:00,